Regional Weather Roundup
Issued by NWS Jackson, KY

Home | Current Version | Previous Version | Text Only | Print | Product List | Glossary Off
Versions: 1 2 3 4 5 6 7 8 9 10 11 12 13 14 15 16 17 18 19 20 21 22 23 24 25 26 27 28

000
ASUS43 KJKL 031110
RWRJKL

EAST KENTUCKY HOURLY WEATHER ROUNDUP
NATIONAL WEATHER SERVICE JACKSON KY
600 AM EST SAT DEC 03 2016

NOTE: "FAIR" INDICATES FEW OR NO CLOUDS BELOW 12,000 FEET WITH
NO SIGNIFICANT WEATHER AND/OR OBSTRUCTIONS TO VISIBILITY.

* THESE REPORTS ARE NOT UNDER NWS QUALITY CONTROL AND MAY NOT
  REPORT WEATHER SUCH AS PRECIPITATION AND FOG.

KYZ079-080-083-085-087-088-110-112-115-119-120-031200
...EASTERN KENTUCKY...

CITY           SKY/WX    TMP DP  RH WIND       PRES   REMARKS
JACKSON        CLOUDY    36  30  79 CALM      30.31S
LONDON         CLOUDY    33  28  81 CALM      30.31S
SOMERSET*      MOCLDY    30  30 100 CALM      30.34F
MONTICELLO*    CLOUDY    28  27  96 VRB7      30.35S WCI  21
WILLIAMSBURG*  CLOUDY    28  28 100 CALM      30.31F
HARLAN APT*    CLOUDY    32  30  93 CALM      30.30S
PIKE CO APT*   CLOUDY    35  30  83 CALM      30.30S
MOREHEAD APT*  CLOUDY    37  30  75 CALM      30.33F
ASHLAND*       CLOUDY    39  30  70 N3        30.32S
$$

KYZ035-036-041-042-044-050-067-078-099-031200
...CENTRAL KENTUCKY...

CITY           SKY/WX    TMP DP  RH WIND       PRES   REMARKS
MT STERLING*   CLOUDY    36  32  87 CALM      30.34S
FLEMING/MASON* CLOUDY    36  32  85 CALM      30.33F
DANVILLE*      CLOUDY    34  32  93 CALM      30.34S
LEXINGTON      CLOUDY    38  31  76 NW3       30.34R
FRANKFORT      CLOUDY    39  31  72 CALM      30.33R
LOUISVILLE     CLOUDY    41  30  65 NW6       30.36R
LEBANON*       CLOUDY    37  32  81 CALM      30.34S
GLASGOW*       PTCLDY    31  31 100 CALM      30.34S
BOWLING GREEN  CLOUDY    31  29  92 CALM      30.35S
$$

KYZ091>093-OHZ055-061-077-WVZ005-015-034-035-042-031200
...SOUTHERN OHIO/WEST VIRGINIA...

CITY           SKY/WX    TMP DP  RH WIND       PRES   REMARKS
COVINGTON      CLOUDY    36  34  92 SW3       30.33S
COLUMBUS       CLOUDY    35  33  92 W3        30.30R
DAYTON         CLOUDY    36  31  82 W7        30.32R WCI  30
WILMINGTON     CLOUDY    36  32  85 W6        30.31  WCI  31
HUNTINGTON     CLOUDY    39  27  62 NW6       30.32S WCI  35
CHARLESTON     CLOUDY    37  29  72 W3        30.32R
BECKLEY        CLOUDY    31  23  72 NW12      30.25R WCI  22
BLUEFIELD      CLOUDY    29  22  75 NW7G18    30.24S WCI  22
LOGAN CO APT*  CLOUDY    36  28  75 CALM      30.29R
$$

VAZ002-007-008-TNZ017-027-036-066-071-031200
...SOUTHWEST VIRGINIA/EAST TENNESSEE...

CITY           SKY/WX    TMP DP  RH WIND       PRES   REMARKS
WISE*          CLOUDY    32  28  86 N3        30.25S
JONESVILLE*      N/A     28  28 100 CALM      30.31F
BRISTOL        CLOUDY    31  28  89 CALM      30.29S
MORRISTOWN*    PTSUNNY   32  28  86 E3        30.28S
SEVIERVILLE*   SUNNY     28  27  93 CALM      30.30S
KNOXVILLE      CLOUDY    36  30  79 NE7       30.29S WCI  30
OAK RIDGE      CLOUDY    38  29  70 N3        30.32S
CROSSVILLE     CLOUDY    32  27  81 NE3       30.28
NASHVILLE      CLOUDY    38  30  73 N5        30.35R WCI  34
$$

...KEY TO REMARKS...
VSB - VISIBILITY IN MILES
WCI - WIND CHILL INDEX
HX  - HEAT INDEX

$$




USA.gov is the U.S. government's official web portal to all federal, state and local government web resources and services.